Location: Hilton Head Island
(32.2163°N, 80.7526°W)
Time: 03:02:35
(UTC-04:00)

Vanguard 2 Rocket - Pass Details

Date: 23 February 2026
Orbit: 553 x 3286 km, 32.9° (Epoch: 9 March)

Event Time Altitude Azimuth Distance (km) Brightness Sun altitude
Rises 11:29:07 0° 248° (WSW) 6,913 11.4 45.2°
Reaches altitude 10° 11:33:28 10° 248° (WSW) 6,065 11.2 45.5°
Maximum altitude 11:53:46 83° 164° (SSE) 3,171 10.7 46.9°
Drops below altitude 10° 12:10:11 10° 79° (E) 5,066 10.8 47.7°
Sets 12:13:27 0° 79° (E) 5,781 11.0 47.8°
